Location: Unspecified
(0.0000°N, 0.0000°E)
Time: 19:37:02
(UTC+02:00)

NOAA 12 - Visible Passes

Search period start: 22 May 2015 00:00
Search period end: 01 June 2015 00:00
Orbit: 796 x 815 km, 98.6° (Epoch: 22 May)

Date Brightness Start Highest point End Pass type
(mag) Time Alt. Az. Time Alt. Az. Time Alt. Az.
22 May 4.0 21:14:42 12° SSE 21:19:30 89° E 21:24:44 10° NNW visible
23 May 4.4 20:49:42 10° SSE 20:54:38 44° ENE 20:59:36 10° N visible
23 May 6.9 22:32:48 10° WSW 22:34:23 11° W 22:35:31 10° W visible
24 May 5.3 20:25:51 10° SE 20:29:44 22° E 20:33:48 10° NNE visible
24 May 6.2 22:05:20 10° SSW 22:09:26 23° WSW 22:13:24 10° NW visible
25 May 5.0 21:40:07 13° S 21:44:32 45° WSW 21:49:30 10° NNW visible
26 May 4.0 21:14:54 13° SSE 21:19:41 89° E 21:24:56 10° NNW visible
27 May 4.4 20:49:53 10° SSE 20:54:49 44° ENE 20:59:49 10° N visible
27 May 6.9 22:33:01 10° WSW 22:34:35 11° W 22:35:40 10° W visible
28 May 5.3 20:26:01 10° SE 20:29:55 22° E 20:34:01 10° NNE visible
28 May 6.2 22:05:31 10° SSW 22:09:38 23° WSW 22:13:35 10° NW visible
29 May 5.0 21:40:18 13° S 21:44:44 45° WSW 21:49:42 10° NNW visible
30 May 4.0 21:15:04 12° SSE 21:19:52 89° E 21:25:08 10° NNW visible
31 May 4.4 20:50:04 10° SSE 20:55:01 44° ENE 21:00:01 10° N visible
31 May 6.9 22:33:15 10° WSW 22:34:46 11° W 22:35:50 10° W visible
